| time (UTC) | temp C | wind direction | speed KPH | gust KPH | rain 1hr cm | rain 24hr cm | rain mn cm | humidity % | barometer mb |
| 20260505064547 | 12 | 264 | 1.6 | 8.0 | 0.00 | 0.00 | 0.00 | 73 | 1027.4 |
| 20260505063043 | 12 | 263 | 6.4 | 14.5 | 0.00 | 0.00 | 0.00 | 72 | 1027.2 |
| 20260505061540 | 12 | 263 | 8.0 | 12.9 | 0.00 | 0.00 | 0.00 | 72 | 1027.1 |
| 20260505060039 | 13 | 236 | 8.0 | 17.7 | 0.00 | 0.00 | 0.00 | 71 | 1026.9 |
| 20260505054551 | 13 | 228 | 4.8 | 16.1 | 0.00 | 0.00 | 0.00 | 71 | 1027.0 |
| 20260505053053 | 13 | 243 | 4.8 | 12.9 | 0.00 | 0.00 | 0.00 | 69 | 1026.8 |
| 20260505051541 | 13 | 268 | 4.8 | 11.3 | 0.00 | 0.00 | 0.00 | 68 | 1026.8 |
| 20260505041533 | 16 | 293 | 4.8 | 12.9 | 0.00 | 0.00 | 0.00 | 62 | 1027.1 |
| 20260505040040 | 16 | 257 | 3.2 | 11.3 | 0.00 | 0.00 | 0.00 | 62 | 1027.0 |
| 20260505034532 | 16 | 302 | 6.4 | 11.3 | 0.00 | 0.00 | 0.00 | 60 | 1027.1 |
| 20260505033039 | 16 | 262 | 4.8 | 12.9 | 0.00 | 0.00 | 0.00 | 60 | 1027.0 |
| 20260505031529 | 17 | 275 | 3.2 | 9.7 | 0.00 | 0.00 | 0.00 | 60 | 1027.2 |
| 20260505030028 | 16 | 271 | 4.8 | 17.7 | 0.00 | 0.00 | 0.00 | 60 | 1027.2 |
| 20260505024526 | 17 | 238 | 6.4 | 14.5 | 0.00 | 0.00 | 0.00 | 60 | 1027.2 |
| 20260505023026 | 17 | 283 | 8.0 | 16.1 | 0.00 | 0.00 | 0.00 | 60 | 1027.3 |
| 20260505021525 | 17 | 271 | 6.4 | 17.7 | 0.00 | 0.00 | 0.00 | 59 | 1027.4 |
| 20260505020022 | 16 | 341 | 9.7 | 17.7 | 0.00 | 0.00 | 0.00 | 59 | 1027.5 |
| 20260505014518 | 16 | 252 | 9.7 | 17.7 | 0.00 | 0.00 | 0.00 | 61 | 1027.7 |
| 20260505013017 | 16 | 280 | 9.7 | 20.9 | 0.00 | 0.00 | 0.00 | 60 | 1027.8 |
| 20260505011515 | 16 | 247 | 6.4 | 17.7 | 0.00 | 0.00 | 0.00 | 61 | 1028.2 |
| 20260505010013 | 16 | 269 | 6.4 | 16.1 | 0.00 | 0.00 | 0.00 | 62 | 1028.4 |
| 20260505004510 | 16 | 269 | 4.8 | 17.7 | 0.00 | 0.00 | 0.00 | 64 | 1028.6 |
| 20260505003007 | 16 | 248 | 6.4 | 14.5 | 0.00 | 0.00 | 0.00 | 62 | 1028.9 |
| 20260505001505 | 16 | 275 | 6.4 | 22.5 | 0.00 | 0.00 | 0.00 | 63 | 1029.2 |
| 20260505000001 | 16 | 276 | 4.8 | 14.5 | 0.00 | 0.00 | 0.00 | 65 | 1029.4 |
| 20260504234558 | 15 | 338 | 4.8 | 12.9 | 0.00 | 0.00 | 0.00 | 65 | 1029.6 |
| 20260504233055 | 15 | 238 | 3.2 | 11.3 | 0.00 | 0.00 | 0.00 | 67 | 1029.8 |
| 20260504231550 | 15 | 260 | 3.2 | 11.3 | 0.00 | 0.00 | 0.00 | 65 | 1030.0 |
| 20260504230048 | 14 | 251 | 1.6 | 6.4 | 0.00 | 0.00 | 0.00 | 67 | 1030.1 |
| 20260504224548 | 13 | 252 | 1.6 | 8.0 | 0.00 | 0.00 | 0.00 | 68 | 1030.2 |
| 20260504223040 | 13 | 251 | 3.2 | 9.7 | 0.00 | 0.00 | 0.00 | 69 | 1030.2 |
| 20260504221538 | 12 | 240 | 1.6 | 8.0 | 0.00 | 0.00 | 0.00 | 72 | 1030.3 |
| 20260504220033 | 12 | 245 | 3.2 | 6.4 | 0.00 | 0.00 | 0.00 | 74 | 1030.4 |
| 20260504214530 | 11 | 248 | 0.0 | 4.8 | 0.00 | 0.00 | 0.00 | 76 | 1030.4 |
| 20260504213026 | 11 | 249 | 1.6 | 4.8 | 0.00 | 0.00 | 0.00 | 76 | 1030.5 |
| 20260504211522 | 10 | 248 | 1.6 | 6.4 | 0.00 | 0.00 | 0.00 | 77 | 1030.5 |
| 20260504210020 | 8 | 246 | 1.6 | 4.8 | 0.00 | 0.00 | 0.00 | 80 | 1030.6 |
| 20260504204515 | 8 | 272 | 1.6 | 4.8 | 0.00 | 0.00 | 0.00 | 83 | 1030.6 |
| 20260504203012 | 7 | 238 | 1.6 | 6.4 | 0.00 | 0.00 | 0.00 | 87 | 1030.6 |
| 20260504201507 | 6 | 266 | 0.0 | 4.8 | 0.00 | 0.00 | 0.00 | 89 | 1030.5 |
| 20260504200008 | 5 | 241 | 0.0 | 1.6 | 0.00 | 0.00 | 0.00 | 90 | 1030.4 |
| 20260504194506 | 5 | 240 | 0.0 | 3.2 | 0.00 | 0.00 | 0.00 | 90 | 1030.4 |
| 20260504193005 | 5 | 252 | 0.0 | 1.6 | 0.00 | 0.00 | 0.00 | 91 | 1030.3 |
| 20260504191517 | 5 | 250 | 0.0 | 3.2 | 0.00 | 0.00 | 0.00 | 92 | 1030.3 |
| 20260504190004 | 5 | 248 | 0.0 | 4.8 | 0.00 | 0.00 | 0.00 | 92 | 1030.2 |
| 20260504184511 | 4 | 249 | 1.6 | 4.8 | 0.00 | 0.00 | 0.00 | 93 | 1030.2 |
| 20260504183003 | 3 | 238 | 0.0 | 6.4 | 0.00 | 0.00 | 0.00 | 92 | 1030.2 |
| 20260504181501 | 3 | 240 | 3.2 | 6.4 | 0.00 | 0.00 | 0.00 | 92 | 1030.2 |
| 20260504180059 | 3 | 246 | 1.6 | 4.8 | 0.00 | 0.00 | 0.00 | 92 | 1030.1 |
| 20260504174606 | 3 | 241 | 1.6 | 8.0 | 0.00 | 0.00 | 0.00 | 91 | 1030.2 |
| 20260504173100 | 4 | 250 | 0.0 | 4.8 | 0.00 | 0.00 | 0.00 | 91 | 1030.2 |
| 20260504171550 | 5 | 256 | 0.0 | 8.0 | 0.00 | 0.00 | 0.00 | 91 | 1030.2 |
| 20260504081546 | 7 | 247 | 0.0 | 0.0 | 0.00 | 0.00 | 0.00 | 89 | 1030.9 |